• Join FlightAware (Why Join?)
  • Login
  • US Flag 
10:31PM EDT


 

Airport Tracker/Info


-or-


 

Live Flight TrackerFlight Track Log ✈ UPS1338 ✈ 26-Jul-2014 ✈ KSDF - KPIE

Flight Track Log - Related Links

Times and Time Zones

All times are in EDT time to prevent confusion due to time zone crossing. See the UPS1338 flight status page for this flight to view local times or setup timezone preferences in your user account.

Time Position Orientation Groundspeed Altitude Reporting Facility
EDT Latitude Longitude Course Direction KTS MPH feet Rate Location/Type
05:25AM 38.1286 -85.7066 159° South 210 242 2,800  Level FlightAware ADS-B (KBRY)
05:26AM 38.0658 -85.6668 142° Southeast 274 315 5,600 3,180 Climbing FlightAware ADS-B (KBRY)
05:26AM 38.0373 -85.6402 144° Southeast 279 321 7,500 3,540 Climbing FlightAware ADS-B
05:26AM 38.0319 -85.6353 144° Southeast 285 328 8,200 3,180 Climbing FlightAware ADS-B
05:27AM 38.0023 -85.6071 142° Southeast 299 344 9,200 3,240 Climbing FlightAware ADS-B (KBRY)
05:27AM 37.9870 -85.5919 143° Southeast 309 356 9,900 2,100 Climbing FlightAware ADS-B
05:27AM 37.9498 -85.5558 143° Southeast 342 394 10,800 1,980 Climbing FlightAware ADS-B
05:29AM 37.8415 -85.4498 142° Southeast 421 484 13,400 2,400 Climbing FlightAware ADS-B (KBRY)
05:30AM 37.7455 -85.3635 154° Southeast 438 504 16,200 2,760 Climbing FlightAware ADS-B (KBRY)
05:31AM 37.6345 -85.3079 160° South 455 524 18,800 2,580 Climbing FlightAware ADS-B
05:31AM 37.5750 -85.2793 159° South 463 533 20,000 2,040 Climbing FlightAware ADS-B
05:32AM 37.5081 -85.2460 158° South 478 550 21,000 1,740 Climbing FlightAware ADS-B (KBRY)
05:32AM 37.4409 -85.2125 158° South 491 565 22,000 1,980 Climbing FlightAware ADS-B
05:33AM 37.4409 -85.2125 158° South 496 571 23,300 2,100 Climbing FlightAware ADS-B
05:34AM 37.2601 -85.1230 159° South 506 582 25,000 1,800 Climbing FlightAware ADS-B (KBRY)
05:34AM 37.1663 -85.0764 159° South 516 594 26,200 1,500 Climbing FlightAware ADS-B
05:35AM 37.0857 -85.0367 159° South 520 598 27,000 1,740 Climbing FlightAware ADS-B
05:37AM 36.8528 -84.9222 159° South 523 602 30,300 1,740 Climbing FlightAware ADS-B (KBRY)
05:38AM 36.7193 -84.8573 159° South 525 604 31,900 900 Climbing FlightAware ADS-B (KBRY)
05:40AM 36.4419 -84.7237 159° South 528 608 33,000 300 Climbing FlightAware ADS-B (KBRY)
05:41AM 36.3062 -84.6580 159° South 524 603 33,000  Level FlightAware ADS-B (KBRY)
05:42AM 36.1861 -84.6000 159° South 526 605 33,000  Level Indianapolis Center
05:42AM 36.1031 -84.5708 164° South 527 606 33,000  Level Atlanta Center
05:43AM 35.9511 -84.5108 162° South 527 606 33,000  Level Atlanta Center
05:44AM 35.8114 -84.4586 163° South 527 606 33,000  Level Atlanta Center
05:45AM 35.6697 -84.4044 163° South 527 606 33,000  Level Atlanta Center
05:46AM 35.5322 -84.3525 163° South 522 601 33,000  Level Atlanta Center
05:47AM 35.3925 -84.3011 163° South 522 601 33,000  Level Atlanta Center
05:48AM 35.2569 -84.2497 163° South 516 594 33,000 240 Level Atlanta Center
05:49AM 35.1236 -84.2014 163° South 511 588 33,500 660 Climbing Atlanta Center
05:50AM 34.9858 -84.1503 163° South 511 588 34,400 720 Climbing Atlanta Center
05:51AM 34.8481 -84.0969 162° South 511 588 35,000 300 Climbing Atlanta Center
05:52AM 34.7147 -84.0464 163° South 511 588 35,000  Level Atlanta Center
05:53AM 34.5978 -83.9983 161° South 500 575 35,000  Level Atlanta Center
05:54AM 34.4642 -83.9506 164° South 495 570 35,000  Level Atlanta Center
05:55AM 34.3306 -83.9006 163° South 495 570 35,000  Level Atlanta Center
05:56AM 34.2011 -83.8531 163° South 495 570 35,000  Level Atlanta Center
05:57AM 34.0675 -83.8031 163° South 495 570 35,000  Level Atlanta Center
05:58AM 33.9339 -83.7558 164° South 495 570 35,000  Level Atlanta Center
05:59AM 33.8022 -83.7089 163° South 495 570 35,000  Level Atlanta Center
06:00AM 33.6706 -83.6619 163° South 495 570 35,100 420 Climbing Atlanta Center
06:01AM 33.5389 -83.6125 163° South 495 570 35,900 420 Climbing Atlanta Center
06:02AM 33.4072 -83.5661 164° South 495 570 36,000  Climbing Atlanta Center
06:03AM 33.2733 -83.5169 163° South 500 575 36,000  Level Atlanta Center
06:04AM 33.1375 -83.4708 164° South 500 575 36,000  Level Atlanta Center
06:05AM 32.9933 -83.4197 163° South 495 570 36,000  Level Atlanta Center
06:06AM 32.8594 -83.3711 163° South 495 570 36,000  Level Atlanta Center
06:07AM 32.7256 -83.3228 163° South 495 570 36,000  Level Atlanta Center
06:08AM 32.5894 -83.2747 163° South 495 570 36,000  Level Atlanta Center
06:09AM 32.4619 -83.2289 163° South 490 564 36,000  Level Atlanta Center
06:11AM 32.3103 -83.1753 163° South 502 578 36,000  Level Jacksonville Center
06:12AM 32.1850 -83.1283 162° South 486 559 36,000  Level Jacksonville Center
06:13AM 32.0558 -83.0861 165° South 486 559 36,000  Level Jacksonville Center
06:14AM 31.9158 -83.0344 163° South 481 554 36,000  Level Jacksonville Center
06:15AM 31.7886 -82.9903 164° South 481 554 36,000  Level Jacksonville Center
06:16AM 31.6614 -82.9464 164° South 481 554 36,000  Level Jacksonville Center
06:17AM 31.5339 -82.9022 164° South 481 554 36,000  Level Jacksonville Center
06:18AM 31.4067 -82.8586 164° South 481 554 36,000  Level Jacksonville Center
06:19AM 31.2833 -82.8172 164° South 469 540 36,000  Level Jacksonville Center
06:24AM 30.5939 -82.5833 164° South 466 536 36,000  Level FlightAware ADS-B (KMCO)
06:25AM 30.5053 -82.5540 164° South 466 536 36,000  Level FlightAware ADS-B (KMCO)
06:27AM 30.2574 -82.5004 170° South 476 548 36,000  Level FlightAware ADS-B (KMCO)
06:28AM 30.1127 -82.4697 170° South 483 556 36,000 -240 Level FlightAware ADS-B (KMCO)
06:28AM 30.0217 -82.4505 170° South 477 549 35,600 -1,140 Descending FlightAware ADS-B (KMCO)
06:29AM 29.9420 -82.4335 170° South 468 539 34,500 -1,980 Descending FlightAware ADS-B (KMCO)
06:30AM 29.8531 -82.4144 170° South 477 549 33,000 -2,640 Descending FlightAware ADS-B (KMCO)
06:31AM 29.7176 -82.3867 170° South 474 545 30,100 -3,000 Descending FlightAware ADS-B (KMCO)
06:32AM 29.5932 -82.3611 171° South 468 539 27,100 -3,120 Descending FlightAware ADS-B (KMCO)
06:32AM 29.5224 -82.3518 174° South 469 540 25,300 -2,520 Descending FlightAware ADS-B (KMCO)
06:33AM 29.4097 -82.3385 174° South 455 524 23,600 -2,100 Descending FlightAware ADS-B (KMCO)
06:34AM 29.2871 -82.3235 174° South 436 502 21,500 -2,160 Descending FlightAware ADS-B (KMCO)
06:35AM 29.1530 -82.3074 174° South 424 488 19,000 -2,160 Descending FlightAware ADS-B (KMCO)
06:37AM 29.0191 -82.2917 174° South 405 466 16,600 -2,100 Descending FlightAware ADS-B (KMCO)
06:38AM 28.9016 -82.2777 174° South 390 449 13,800 -1,500 Descending FlightAware ADS-B (KMCO)
06:40AM 28.6023 -82.2733 214° Southwest 359 413 10,900 -840 Descending FlightAware ADS-B (KMCO)
06:41AM 28.5500 -82.3167 214° Southwest 353 406 11,000 -300 Climbing Tampa TRACON
06:42AM 28.4667 -82.3833 215° Southwest 319 367 10,400 -600 Descending Tampa TRACON
06:43AM 28.4000 -82.4333 213° Southwest 266 306 9,800 -960 Descending Tampa TRACON
06:44AM 28.3500 -82.4667 210° Southwest 245 282 8,500 -1,200 Descending Tampa TRACON
06:45AM 28.2833 -82.5167 213° Southwest 240 276 7,400 -1,200 Descending Tampa TRACON
06:46AM 28.2333 -82.5500 210° Southwest 217 250 6,100 -1,440 Descending Tampa TRACON
06:47AM 28.2000 -82.5833 221° Southwest 210 242 4,600 -1,500 Descending Tampa TRACON
06:48AM 28.1500 -82.6333 221° Southwest 197 227 3,200 -900 Descending Tampa TRACON
06:49AM 28.1000 -82.6500 196° South 162 186 2,800 -720 Descending Tampa TRACON
06:50AM 28.0667 -82.6667 204° Southwest 159 183 1,700 -720 Descending Tampa TRACON
06:51AM 28.0167 -82.6667 180° South 137 158 1,300 -360 Descending Tampa TRACON
06:52AM 27.9833 -82.6833 204° Southwest 127 146 1,000 -420 Descending Tampa TRACON
06:53AM 27.9667 -82.7000 221° Southwest 129 148 600 -480 Descending Tampa TRACON
06:56AM 27.9100 -82.6875 206° Southwest  Level Estimated
07:03AM 27.9100 -82.6875 North  Level Estimated